Other Public Products
Issued by NWS Grand Forks, ND

Home | Current Version | Previous Version | Text Only | Print | Product List | Glossary On
Versions: 1 2 3 4 5 6 7 8 9 10 11 12 13 14 15 16 17 18 19 20 21 22 23 24 25 26 27 28 29 30 31 32 33 34 35 36 37 38 39 40 41 42 43 44 45 46 47 48 49 50
000
FPUS83 KFGF 201310
OPUFGF
PRAIRIE TO PINES WEATHER ROUNDUP
NATIONAL WEATHER SERVICE EASTERN NORTH DAKOTA/GRAND FORKS ND
800 AM CDT FRI OCT 20 2017

 **SATELLITE DATA USED TO AUGMENT SKY COVER AT AUTOMATED STATIONS**
 *****  WEATHER ACROSS EASTERN NORTH DAKOTA  *****

CITY           SKY/WX    TMP DP  RH WIND       PRES   REMARKS
GRAND FORKS    FAIR      50  47  89 S10       29.58F
GRAND FORKS AF FAIR      48  46  93 S10       29.57F
GRAND CITY NWS NOT AVBL
BUXTON         NOT AVBL
DEVILS LAKE    FAIR      46  44  93 SE8       29.51
FARGO          FAIR      58  49  72 SE21G29   29.61F
WAHPETON ARPT  NOT AVBL
$$

 *****  WEATHER ACROSS CENTRAL AND WESTERN NORTH DAKOTA  *****

CITY           SKY/WX    TMP DP  RH WIND       PRES   REMARKS
JAMESTOWN      FAIR      51  46  83 S17       29.54F
BISMARCK       FAIR      52  47  83 SE12      29.47F
MINOT          FAIR      36  33  89 CALM      29.42F
MINOT AFB      FAIR      33  30  89 SE5       29.41F
GARRISON         N/A     41  39  93 E6        29.44F
WILLISTON      FAIR      33  29  85 NE5       29.40F
DICKINSON      FAIR      44  27  51 S12       29.42F
HETTINGER      FAIR      44  26  49 S5        29.48F
$$

 *****  OTHER OBSERVATIONS NORTHEAST NORTH DAKOTA  *****

CITY           SKY/WX    TMP DP  RH WIND       PRES   REMARKS
WALHALLA       FAIR     N/A N/A N/A SE6       29.54F
LANGDON        FAIR      39  39 100 SE8       29.54F
CAVALIER       FAIR      41  41 100 SE7       29.55F
GRAFTON        FAIR      41  41 100 SE7       29.59F
CANDO          FAIR      39  39 100 SE8       29.52F
FORT TOTTEN      N/A     47  43  85 SE10      29.95
ROLLA          FAIR      39  36  87 CALM      29.51F
RUGBY          FAIR      43  39  87 E10       29.46F
 ***** THE ABOVE OBSERVATIONS ARE NON NWS ARE NOT QUALITY
        CONTROLLED AND MAY MIS-REPORT RAIN FOR SNOW...
$$

 *****  OTHER OBSERVATIONS SOUTHEAST NORTH DAKOTA *****

CITY           SKY/WX    TMP DP  RH WIND       PRES   REMARKS
COOPERSTOWN    FAIR      46  46 100 SE10      29.56F
VALLEY CITY    FAIR      55  50  82 S14       29.58F
OAKES          NOT AVBL
GWINNER        SUNNY     59  48  67 S15G21    29.60F
SHEYENNE NWR     N/A     50  48  92 SE6       29.95S
BUFFALO        NOT AVBL
WYNDMERE       NOT AVBL
 ***** THE ABOVE OBSERVATIONS ARE NON NWS ARE NOT QUALITY
       CONTROLLED AND MAY MIS-REPORT RAIN FOR SNOW...
$$

  *****  WEATHER ACROSS NORTHERN MINNESOTA  *****

CITY           SKY/WX    TMP DP  RH WIND       PRES   REMARKS
FLAG ISLAND    FAIR      52  45  76 SE9       29.65F
WARROAD        FAIR      50  46  87 S7        29.66S
ROSEAU         FAIR      50  45  81 SE7       29.64S
HALLOCK        FAIR      48  45  87 SE10      29.58F
THF RVR FALLS  FAIR      50  45  83 SE9       29.64F
HALSTAD        NOT AVBL
FOSSTON        FAIR      57  46  67 S10       29.66F
BAUDETTE       FAIR      45  42  89 SE7       29.69F
WASKISH        FAIR      52  46  82 SE7       29.70S
CROOKSTON      FAIR      52  46  82 SE10      29.61F
$$
  *****  WEATHER ACROSS CENTRAL AND WEST MINNESOTA  *****

CITY           SKY/WX    TMP DP  RH WIND       PRES   REMARKS
BEMIDJI        FAIR      47  44  91 SE3       29.71S
PARK RAPIDS    FAIR      49  46  90 SE7       29.73S
WADENA         FAIR      54  46  76 S9        29.73S
DETROIT LAKES  FAIR      54  48  82 S9        29.69F
MOORHEAD       FAIR      55  48  76 SE16      29.63F
FERGUS FALLS   FAIR      55  48  76 S12       29.71S
ELBOW LAKE     FAIR      54  48  82 SE15      29.72S
MORRIS MN      FAIR      52  48  87 SE9       29.73S
STAPLES        FAIR      52  46  82 S9        29.76S
WHEATON        FAIR      54  46  76 SE16      29.69F
$$
  *****  WEATHER ELSEWHERE ACROSS MINNESOTA  *****

CITY           SKY/WX    TMP DP  RH WIND       PRES   REMARKS
DULUTH         FAIR      52  48  86 S8        29.85S
INTRNTL FALLS  FAIR      43  39  86 SE6       29.74F
ELY            FAIR      50  43  76 S7        29.83S
CLOQUET        FAIR      52  46  82 S5        29.84S
BRAINERD       FAIR      53  48  83 S13       29.79F
HIBBING        FAIR      35  34  96 CALM      29.81F
ALEXANDRIA     FAIR      56  48  74 S10       29.77S
SAINT CLOUD    FAIR      49  48  97 SE9       29.83S
MINNEAPOLIS    FAIR      54  50  86 SE8       29.90R
$$

  *****  WEATHER ACROSS SOUTH DAKOTA  *****

CITY           SKY/WX    TMP DP  RH WIND       PRES   REMARKS
SIOUX FALLS    FAIR      57  49  74 S13G23    29.81F
BROOKINGS      FAIR      52  47  83 S16       29.78F
WATERTOWN      FAIR      51  48  89 SE9       29.72F
HURON          FAIR      54  47  77 S16       29.68F
SISSETON         N/A     62  48  60 S12       29.66S
ABERDEEN       FAIR      56  47  71 S17G30    29.62F
MITCHELL       FAIR      56  48  74 S14       29.72F
PIERRE         FAIR      55  46  71 SE15      29.57F
MOBRIDGE       FAIR      57  48  72 SE16      29.50F
RAPID CITY     FAIR      46  29  51 CALM      29.56F
$$

  *****  SOME WEATHER IN NEARBY STATES *****

CITY           SKY/WX    TMP DP  RH WIND       PRES   REMARKS
GLASGOW MT     FAIR      43  29  57 E12       29.35F
GREAT FALLS MT FAIR      59  17  19 S14       29.32F
CHEYENNE WY    FAIR      47  31  53 SW8       29.79S
SCOTTSBLUFF NE FAIR      39  32  76 E3        29.69F
OMAHA NE       FAIR      58  51  78 S15       29.95F
DES MOINES IA  MOCLDY    55  51  86 S9        30.03F
DAVENPORT IA   FAIR      53  49  86 S8        30.14S
CHICAGO IL     FAIR      54  48  80 S3        30.16S
EAU CLAIRE WI  FAIR      51  46  83 S3        29.96S
LA CROSSE WI   FAIR      57  51  80 S9        30.02S
$$

  *****  SOME NATIONAL WEATHER *****

CITY           SKY/WX    TMP DP  RH WIND       PRES   REMARKS
LA GUARDIA NY  FAIR      62  43  49 NW12      30.16R
RALEIGH NC     FAIR      51  50  96 CALM      30.27R
ATLANTA GA     FAIR      55  49  80 CALM      30.29R
NEW ORLEANS LA CLOUDY    70  66  87 E6        30.14S
OKLAHOMA CITY  FAIR      58  55  90 S10       30.04F
ALBUQUERQUE NM FAIR      50  46  86 SE3       30.03S
SALT LAKE CITY MOCLDY    63  35  35 S12       29.59F
LOS ANGELES CA FAIR      64  59  83 W12       29.91R
BOISE ID       LGT RAIN  44  39  82 N14       29.62S
SEATTLE WA     MOCLDY    48  45  89 S9        29.63R
$$

*** WEATHER ACROSS MANITOBA...SASKATCHEWAN AND ONTARIO ***
                ***ONTARIO***

CITY           SKY/WX    TMP DP  RH WIND       PRES   REMARKS
GERALDTON      PTCLDY    30  28  93 SE3       29.87S
THUNDER BAY    PTCLDY    34  32  93 W3        29.87S
SIOUX LOOKOUT  PTCLDY    46  39  76 SE7       29.75F
TORONTO        MOSUNNY   54  41  62 VRB2      30.24R
BIG TROUT LK   CLOUDY    36  36 100 E8        29.90R
PICKLE LAKE    PTCLDY    32  28  86 E5        29.78R
DRYDEN         CLEAR     48  39  71 S13       29.74S
KENORA         PTCLDY    48  41  76 SE9       29.68F
$$
                *** MANITOBA***

CITY           SKY/WX    TMP DP  RH WIND       PRES   REMARKS
BRANDON        MOCLDY    39  34  81 E7        29.48F
DAUPHIN        PTCLDY    37  30  75 NW3       29.47F
ISLAND LAKE    MOCLDY    37  32  81 E16       29.70S
PILOT MOUND      N/A     41  36  81 SE10        N/A
THE PAS        CLOUDY    37  32  81 E6        29.54F
THOMPSON       CLOUDY    34  32  93 E8G17     29.72S
WINNIPEG       PTCLDY    45  41  87 SE12      29.56F
LYNN LAKE      CLOUDY    32  32 100 E12G18    29.66F FOG     WCI  23
CHURCHILL      CLOUDY    32  27  80 SE8       29.97R WCI  25
GILLAM         CLOUDY    32  32 100 SE7G18    29.86S FOG
$$
                ***SASKATCHEWAN***

CITY           SKY/WX    TMP DP  RH WIND       PRES   REMARKS
ESTEVAN        MOCLDY    41  32  70 E14       29.39F
KINDERSLEY     CLOUDY    45  34  65 E2        29.29F
LLOYDMINSTER   CLOUDY    43  36  75 S14       29.26S
PRINCE ALBERT  CLOUDY    41  34  75 E13G20    29.38F
REGINA         MOCLDY    46  30  53 SE14G20   29.34F
YORKTON        CLEAR     39  32  75 SE9       29.41F


USA.gov is the U.S. government's official web portal to all federal, state and local government web resources and services.